| time (UTC) | temp F | wind direction | speed MPH | gust MPH | rain 1hr in | rain 24hr in | rain mn in | humidity % | barometer mb |
| 20260905050656 | 56 | 59 | 0.0 | 1.0 | 0.00 | 0.18 | 0.18 | 92 | 1015.2 |
| 20260905050651 | 56 | 60 | 0.0 | 1.0 | 0.00 | 0.18 | 0.18 | 92 | 1015.1 |
| 20260905045652 | 56 | 60 | 0.0 | 1.0 | 0.00 | 0.18 | 0.18 | 92 | 1015.2 |
| 20260905045151 | 56 | 60 | 0.0 | 1.0 | 0.00 | 0.18 | 0.18 | 91 | 1015.2 |
| 20260905044648 | 56 | 60 | 0.0 | 1.0 | 0.00 | 0.18 | 0.18 | 91 | 1015.2 |
| 20260905044149 | 56 | 60 | 0.0 | 2.0 | 0.00 | 0.19 | 0.18 | 91 | 1015.1 |
| 20260905043649 | 56 | 60 | 0.0 | 2.0 | 0.00 | 0.19 | 0.18 | 91 | 1015.1 |
| 20260905043149 | 56 | 60 | 0.0 | 2.0 | 0.00 | 0.20 | 0.18 | 91 | 1015.0 |
| 20260905042649 | 56 | 60 | 0.0 | 2.0 | 0.00 | 0.20 | 0.18 | 91 | 1014.9 |
| 20260905042155 | 56 | 15 | 0.0 | 2.0 | 0.00 | 0.21 | 0.18 | 92 | 1014.9 |
| 20260905042149 | 56 | 40 | 0.0 | 2.0 | 0.00 | 0.21 | 0.18 | 91 | 1014.9 |
| 20260905041149 | 57 | 15 | 0.0 | 2.0 | 0.00 | 0.22 | 0.18 | 92 | 1014.8 |
| 20260905040649 | 57 | 15 | 0.0 | 0.0 | 0.00 | 0.22 | 0.18 | 92 | 1014.7 |
| 20260905040149 | 57 | 15 | 0.0 | 1.0 | 0.00 | 0.22 | 0.18 | 92 | 1014.7 |
| 20260905035647 | 57 | 15 | 0.0 | 1.0 | 0.00 | 0.22 | 0.18 | 92 | 1014.7 |
| 20260905035147 | 57 | 15 | 0.0 | 1.0 | 0.00 | 0.23 | 0.18 | 92 | 1014.6 |
| 20260905034646 | 57 | 15 | 0.0 | 2.0 | 0.00 | 0.23 | 0.18 | 92 | 1014.6 |
| 20260905034148 | 57 | 15 | 0.0 | 2.0 | 0.00 | 0.23 | 0.18 | 92 | 1014.6 |
| 20260905033651 | 57 | 15 | 0.0 | 2.0 | 0.00 | 0.23 | 0.18 | 92 | 1014.5 |
| 20260905033647 | 57 | 15 | 0.0 | 2.0 | 0.00 | 0.23 | 0.18 | 92 | 1014.6 |
| 20260905032647 | 57 | 15 | 0.0 | 2.0 | 0.00 | 0.24 | 0.18 | 92 | 1014.5 |
| 20260905032148 | 57 | 15 | 0.0 | 0.0 | 0.00 | 0.24 | 0.18 | 92 | 1014.4 |
| 20260905031648 | 58 | 15 | 0.0 | 0.0 | 0.00 | 0.25 | 0.18 | 92 | 1014.3 |
| 20260905031147 | 58 | 15 | 0.0 | 2.0 | 0.00 | 0.25 | 0.18 | 92 | 1014.2 |
| 20260905030646 | 58 | 15 | 0.0 | 2.0 | 0.00 | 0.25 | 0.18 | 92 | 1014.1 |
| 20260905030150 | 58 | 15 | 0.0 | 2.0 | 0.00 | 0.25 | 0.18 | 92 | 1014.2 |
| 20260905030145 | 58 | 15 | 0.0 | 2.0 | 0.00 | 0.25 | 0.18 | 92 | 1014.2 |
| 20260905025146 | 58 | 15 | 0.0 | 2.0 | 0.00 | 0.25 | 0.18 | 91 | 1014.1 |
| 20260905024644 | 58 | 15 | 0.0 | 0.0 | 0.00 | 0.25 | 0.18 | 91 | 1014.1 |
| 20260905024146 | 58 | 15 | 0.0 | 0.0 | 0.00 | 0.25 | 0.18 | 91 | 1014.1 |
| 20260905023644 | 58 | 15 | 0.0 | 0.0 | 0.00 | 0.25 | 0.18 | 91 | 1014.1 |
| 20260905023145 | 58 | 15 | 0.0 | 0.0 | 0.00 | 0.25 | 0.18 | 91 | 1014.0 |
| 20260905022650 | 58 | 15 | 0.0 | 2.0 | 0.00 | 0.25 | 0.18 | 91 | 1014.0 |
| 20260905022645 | 58 | 15 | 0.0 | 2.0 | 0.00 | 0.25 | 0.18 | 91 | 1014.1 |
| 20260905021647 | 58 | 15 | 0.0 | 2.0 | 0.00 | 0.25 | 0.18 | 90 | 1014.0 |
| 20260905021643 | 58 | 15 | 0.0 | 2.0 | 0.00 | 0.25 | 0.18 | 91 | 1014.0 |
| 20260905020644 | 58 | 15 | 0.0 | 2.0 | 0.00 | 0.25 | 0.18 | 90 | 1013.9 |
| 20260905020142 | 59 | 15 | 0.0 | 2.0 | 0.00 | 0.25 | 0.18 | 90 | 1013.9 |
| 20260905015644 | 59 | 15 | 0.0 | 2.0 | 0.00 | 0.25 | 0.18 | 90 | 1014.0 |
| 20260905015141 | 59 | 15 | 0.0 | 3.0 | 0.00 | 0.25 | 0.18 | 91 | 1014.0 |
| 20260905014641 | 59 | 15 | 0.0 | 3.0 | 0.00 | 0.25 | 0.18 | 91 | 1014.0 |
| 20260905014140 | 59 | 27 | 1.0 | 4.0 | 0.00 | 0.26 | 0.18 | 91 | 1014.0 |
| 20260905013641 | 59 | 23 | 1.0 | 4.0 | 0.00 | 0.26 | 0.18 | 91 | 1014.0 |
| 20260905013142 | 59 | 22 | 0.0 | 3.0 | 0.00 | 0.26 | 0.18 | 91 | 1013.9 |
| 20260905012638 | 59 | 189 | 0.0 | 3.0 | 0.00 | 0.27 | 0.18 | 91 | 1014.0 |
| 20260905012139 | 59 | 189 | 0.0 | 3.0 | 0.00 | 0.29 | 0.18 | 91 | 1013.9 |
| 20260905011638 | 59 | 65 | 0.0 | 2.0 | 0.00 | 0.30 | 0.18 | 91 | 1013.9 |
| 20260905011145 | 58 | 72 | 0.0 | 2.0 | 0.00 | 0.31 | 0.18 | 91 | 1013.8 |
| 20260905011139 | 58 | 65 | 0.0 | 2.0 | 0.00 | 0.31 | 0.18 | 91 | 1013.8 |
| 20260905010639 | 58 | 67 | 0.0 | 2.0 | 0.00 | 0.31 | 0.18 | 91 | 1013.8 |
| 20260905005639 | 58 | 9 | 0.0 | 2.0 | 0.00 | 0.31 | 0.18 | 91 | 1013.7 |
| 20260905005139 | 58 | 9 | 0.0 | 3.0 | 0.00 | 0.31 | 0.18 | 91 | 1013.7 |
| 20260905004643 | 58 | 267 | 1.0 | 2.0 | 0.00 | 0.31 | 0.18 | 90 | 1013.5 |
| 20260905004638 | 58 | 9 | 0.0 | 3.0 | 0.00 | 0.31 | 0.18 | 91 | 1013.5 |
| 20260905003639 | 58 | 283 | 1.0 | 5.0 | 0.01 | 0.31 | 0.18 | 90 | 1013.5 |
| 20260905003139 | 58 | 38 | 1.0 | 5.0 | 0.01 | 0.31 | 0.18 | 90 | 1013.5 |
| 20260905002638 | 59 | 73 | 1.0 | 8.0 | 0.01 | 0.31 | 0.18 | 90 | 1013.4 |
| 20260905002138 | 59 | 33 | 2.0 | 8.0 | 0.01 | 0.31 | 0.18 | 90 | 1013.3 |
| 20260905001639 | 59 | 15 | 1.0 | 6.0 | 0.01 | 0.31 | 0.18 | 90 | 1013.3 |
| 20260905001144 | 60 | 350 | 1.0 | 8.0 | 0.02 | 0.32 | 0.18 | 89 | 1013.2 |
| 20260905001139 | 59 | 9 | 1.0 | 6.0 | 0.01 | 0.31 | 0.18 | 89 | 1013.3 |
| 20260905000144 | 60 | 351 | 3.0 | 5.0 | 0.02 | 0.34 | 0.18 | 89 | 1012.9 |
| 20260905000138 | 60 | 128 | 2.0 | 8.0 | 0.02 | 0.33 | 0.18 | 89 | 1013.1 |
| 20260904235140 | 60 | 30 | 3.0 | 5.0 | 0.02 | 0.34 | 0.18 | 88 | 1013.0 |
| 20260904234639 | 60 | 28 | 3.0 | 5.0 | 0.02 | 0.35 | 0.18 | 89 | 1012.9 |
| 20260904234139 | 60 | 15 | 2.0 | 5.0 | 0.02 | 0.35 | 0.18 | 89 | 1012.9 |
| 20260904233639 | 60 | 15 | 1.0 | 4.0 | 0.01 | 0.35 | 0.17 | 90 | 1012.9 |
| 20260904233138 | 60 | 10 | 1.0 | 4.0 | 0.01 | 0.35 | 0.17 | 91 | 1012.9 |
| 20260904232638 | 60 | 43 | 1.0 | 4.0 | 0.01 | 0.35 | 0.17 | 89 | 1012.9 |
| 20260904232144 | 61 | 17 | 0.0 | 3.0 | 0.01 | 0.35 | 0.17 | 88 | 1013.0 |
| 20260904232138 | 61 | 20 | 1.0 | 4.0 | 0.01 | 0.35 | 0.17 | 89 | 1013.0 |
| 20260904231753 | 61 | 57 | 0.0 | 2.0 | 0.01 | 0.35 | 0.17 | 87 | 1013.0 |
| 20260904230640 | 61 | 63 | 1.0 | 3.0 | 0.00 | 0.34 | 0.16 | 85 | 1012.9 |
| 20260904230143 | 62 | 37 | 1.0 | 6.0 | 0.00 | 0.34 | 0.16 | 84 | 1012.9 |
| 20260904230139 | 62 | 76 | 1.0 | 6.0 | 0.00 | 0.34 | 0.16 | 85 | 1012.9 |
| 20260904225140 | 62 | 253 | 1.0 | 6.0 | 0.00 | 0.34 | 0.16 | 84 | 1012.8 |
| 20260904224640 | 62 | 5 | 2.0 | 8.0 | 0.00 | 0.34 | 0.16 | 84 | 1012.8 |
| 20260904224138 | 63 | 5 | 2.0 | 8.0 | 0.00 | 0.34 | 0.16 | 86 | 1012.8 |
| 20260904223637 | 63 | 23 | 1.0 | 6.0 | 0.00 | 0.34 | 0.16 | 83 | 1012.8 |
| 20260904223136 | 63 | 19 | 2.0 | 6.0 | 0.00 | 0.34 | 0.16 | 85 | 1012.8 |
| 20260904222637 | 63 | 9 | 2.0 | 5.0 | 0.00 | 0.34 | 0.16 | 85 | 1012.8 |
| 20260904222136 | 64 | 196 | 2.0 | 5.0 | 0.01 | 0.34 | 0.16 | 85 | 1012.8 |
| 20260904221640 | 63 | 13 | 1.0 | 5.0 | 0.02 | 0.34 | 0.16 | 87 | 1012.8 |
| 20260904221635 | 64 | 175 | 2.0 | 5.0 | 0.01 | 0.34 | 0.16 | 88 | 1012.7 |
| 20260904220635 | 62 | 339 | 1.0 | 4.0 | 0.02 | 0.34 | 0.16 | 89 | 1012.8 |
| 20260904220139 | 62 | 148 | 2.0 | 5.0 | 0.02 | 0.34 | 0.16 | 87 | 1012.8 |
| 20260904220135 | 62 | 17 | 2.0 | 4.0 | 0.02 | 0.34 | 0.16 | 87 | 1012.7 |
| 20260904215139 | 61 | 76 | 1.0 | 3.0 | 0.02 | 0.34 | 0.16 | 90 | 1012.9 |
| 20260904215135 | 62 | 24 | 1.0 | 5.0 | 0.02 | 0.34 | 0.16 | 90 | 1012.8 |
| 20260904214634 | 61 | 166 | 1.0 | 3.0 | 0.02 | 0.34 | 0.16 | 90 | 1012.9 |
| 20260904213633 | 60 | 37 | 1.0 | 4.0 | 0.02 | 0.34 | 0.16 | 91 | 1012.9 |
| 20260904213133 | 60 | 28 | 1.0 | 5.0 | 0.02 | 0.34 | 0.16 | 92 | 1012.8 |
| 20260904212631 | 60 | 10 | 1.0 | 5.0 | 0.02 | 0.34 | 0.16 | 91 | 1012.8 |
| 20260904212130 | 60 | 14 | 1.0 | 5.0 | 0.01 | 0.33 | 0.15 | 89 | 1012.9 |
| 20260904211130 | 60 | 74 | 1.0 | 4.0 | 0.00 | 0.32 | 0.14 | 89 | 1012.8 |
| 20260904210630 | 60 | 35 | 1.0 | 5.0 | 0.01 | 0.32 | 0.14 | 89 | 1012.8 |
| 20260904210130 | 60 | 36 | 1.0 | 5.0 | 0.01 | 0.32 | 0.14 | 88 | 1012.7 |
| 20260904205630 | 60 | 89 | 1.0 | 8.0 | 0.01 | 0.32 | 0.14 | 88 | 1012.8 |
| 20260904205128 | 60 | 175 | 1.0 | 8.0 | 0.02 | 0.32 | 0.14 | 88 | 1012.7 |
| 20260904204627 | 61 | 169 | 2.0 | 7.0 | 0.02 | 0.32 | 0.14 | 86 | 1012.7 |
| 20260904204127 | 61 | 187 | 2.0 | 8.0 | 0.02 | 0.32 | 0.14 | 85 | 1012.7 |
| 20260904203628 | 62 | 153 | 2.0 | 8.0 | 0.03 | 0.32 | 0.14 | 87 | 1012.7 |
| 20260904203124 | 62 | 180 | 2.0 | 5.0 | 0.03 | 0.32 | 0.14 | 92 | 1012.6 |
| 20260904202625 | 61 | 165 | 1.0 | 5.0 | 0.03 | 0.32 | 0.14 | 90 | 1012.6 |
| 20260904202125 | 60 | 121 | 0.0 | 4.0 | 0.03 | 0.32 | 0.14 | 89 | 1012.6 |
| 20260904201624 | 60 | 158 | 0.0 | 2.0 | 0.03 | 0.33 | 0.14 | 89 | 1012.6 |
| 20260904201124 | 60 | 172 | 0.0 | 2.0 | 0.03 | 0.33 | 0.14 | 89 | 1012.7 |
| 20260904200624 | 60 | 172 | 0.0 | 5.0 | 0.02 | 0.32 | 0.13 | 88 | 1012.8 |
| 20260904200124 | 59 | 173 | 1.0 | 5.0 | 0.02 | 0.32 | 0.13 | 88 | 1012.8 |
| 20260904195625 | 60 | 175 | 1.0 | 6.0 | 0.02 | 0.32 | 0.13 | 86 | 1012.7 |
| 20260904195125 | 60 | 107 | 1.0 | 6.0 | 0.01 | 0.31 | 0.12 | 84 | 1012.7 |
| 20260904194625 | 60 | 202 | 1.0 | 7.0 | 0.01 | 0.31 | 0.12 | 86 | 1012.7 |
| 20260904194124 | 61 | 167 | 1.0 | 7.0 | 0.01 | 0.31 | 0.12 | 84 | 1012.6 |
| 20260904193624 | 61 | 163 | 1.0 | 7.0 | 0.00 | 0.30 | 0.11 | 82 | 1012.7 |
| 20260904193124 | 62 | 190 | 1.0 | 7.0 | 0.00 | 0.30 | 0.11 | 82 | 1012.5 |
| 20260904192624 | 61 | 160 | 1.0 | 4.0 | 0.00 | 0.30 | 0.11 | 85 | 1012.6 |
| 20260904192124 | 61 | 130 | 1.0 | 4.0 | 0.00 | 0.31 | 0.11 | 82 | 1012.5 |
| 20260904191623 | 61 | 84 | 1.0 | 4.0 | 0.00 | 0.31 | 0.11 | 84 | 1012.6 |
| 20260904191128 | 60 | 171 | 1.0 | 4.0 | 0.00 | 0.32 | 0.11 | 89 | 1012.6 |
| 20260904191122 | 61 | 170 | 1.0 | 4.0 | 0.00 | 0.32 | 0.11 | 86 | 1012.6 |
| 20260904190122 | 59 | 334 | 1.0 | 3.0 | 0.00 | 0.32 | 0.11 | 87 | 1012.6 |
| 20260904185622 | 59 | 0 | 0.0 | 2.0 | 0.00 | 0.33 | 0.11 | 88 | 1012.7 |
| 20260904185128 | 59 | 5 | 0.0 | 3.0 | 0.00 | 0.34 | 0.11 | 89 | 1012.6 |
| 20260904185124 | 59 | 5 | 0.0 | 3.0 | 0.00 | 0.34 | 0.11 | 89 | 1012.6 |
| 20260904184122 | 59 | 39 | 0.0 | 2.0 | 0.00 | 0.34 | 0.11 | 90 | 1012.6 |
| 20260904183623 | 59 | 39 | 0.0 | 2.0 | 0.00 | 0.35 | 0.11 | 90 | 1012.6 |
| 20260904183127 | 59 | 22 | 1.0 | 5.0 | 0.00 | 0.37 | 0.11 | 89 | 1012.6 |
| 20260904183123 | 59 | 38 | 0.0 | 2.0 | 0.00 | 0.36 | 0.11 | 89 | 1012.6 |
| 20260904182736 | 59 | 11 | 1.0 | 5.0 | 0.00 | 0.38 | 0.11 | 92 | 1012.5 |
| 20260904181619 | 58 | 28 | 1.0 | 5.0 | 0.00 | 0.39 | 0.11 | 90 | 1012.4 |
| 20260904181120 | 58 | 19 | 1.0 | 5.0 | 0.00 | 0.39 | 0.11 | 91 | 1012.4 |
| 20260904180621 | 58 | 18 | 1.0 | 3.0 | 0.00 | 0.39 | 0.11 | 91 | 1012.4 |
| 20260904180124 | 58 | 162 | 1.0 | 3.0 | 0.00 | 0.39 | 0.11 | 92 | 1012.4 |
| 20260904180120 | 58 | 24 | 1.0 | 3.0 | 0.00 | 0.39 | 0.11 | 91 | 1012.5 |
| 20260904175120 | 58 | 35 | 0.0 | 3.0 | 0.00 | 0.39 | 0.11 | 91 | 1012.3 |
| 20260904174625 | 57 | 348 | 1.0 | 3.0 | 0.00 | 0.39 | 0.11 | 93 | 1012.3 |
| 20260904174120 | 57 | 79 | 1.0 | 3.0 | 0.00 | 0.39 | 0.11 | 93 | 1012.3 |
| 20260904173619 | 57 | 69 | 0.0 | 3.0 | 0.00 | 0.39 | 0.11 | 92 | 1012.2 |
| 20260904173118 | 57 | 125 | 1.0 | 5.0 | 0.00 | 0.39 | 0.11 | 92 | 1012.3 |
| 20260904172617 | 57 | 35 | 1.0 | 5.0 | 0.00 | 0.39 | 0.11 | 91 | 1012.2 |
| 20260904172119 | 57 | 163 | 1.0 | 4.0 | 0.00 | 0.39 | 0.11 | 92 | 1012.2 |
| 20260904171618 | 57 | 283 | 0.0 | 3.0 | 0.00 | 0.40 | 0.11 | 93 | 1012.2 |
| 20260904171118 | 57 | 69 | 0.0 | 3.0 | 0.00 | 0.40 | 0.11 | 93 | 1012.1 |
| 20260904170619 | 57 | 19 | 1.0 | 4.0 | 0.00 | 0.40 | 0.11 | 93 | 1012.0 |
| 20260904170122 | 56 | 44 | 1.0 | 4.0 | 0.00 | 0.40 | 0.11 | 94 | 1012.0 |
| 20260904170117 | 57 | 31 | 1.0 | 4.0 | 0.00 | 0.40 | 0.11 | 94 | 1012.0 |
| 20260904165118 | 56 | 28 | 1.0 | 4.0 | 0.00 | 0.40 | 0.11 | 94 | 1011.9 |
| 20260904164617 | 56 | 355 | 1.0 | 4.0 | 0.00 | 0.40 | 0.11 | 94 | 1011.8 |
| 20260904164116 | 56 | 343 | 1.0 | 4.0 | 0.00 | 0.40 | 0.11 | 94 | 1011.8 |
| 20260904163617 | 56 | 32 | 1.0 | 3.0 | 0.00 | 0.40 | 0.11 | 95 | 1011.8 |
| 20260904163116 | 56 | 28 | 1.0 | 3.0 | 0.00 | 0.40 | 0.11 | 94 | 1011.8 |
| 20260904162617 | 56 | 49 | 0.0 | 3.0 | 0.00 | 0.40 | 0.11 | 94 | 1011.8 |
| 20260904162116 | 56 | 9 | 0.0 | 3.0 | 0.00 | 0.40 | 0.11 | 95 | 1011.8 |
| 20260904161627 | 55 | 223 | 0.0 | 3.0 | 0.00 | 0.41 | 0.11 | 95 | 1011.9 |
| 20260904161621 | 56 | 10 | 1.0 | 3.0 | 0.00 | 0.40 | 0.11 | 95 | 1011.9 |
| 20260904161115 | 56 | 22 | 1.0 | 3.0 | 0.00 | 0.40 | 0.11 | 95 | 1011.8 |
| 20260904160615 | 56 | 9 | 1.0 | 3.0 | 0.00 | 0.41 | 0.11 | 95 | 1011.8 |
| 20260904155615 | 55 | 22 | 0.0 | 3.0 | 0.00 | 0.41 | 0.11 | 95 | 1011.9 |
| 20260904155112 | 55 | 69 | 1.0 | 3.0 | 0.00 | 0.41 | 0.11 | 95 | 1011.9 |
| 20260904154612 | 55 | 45 | 1.0 | 4.0 | 0.00 | 0.42 | 0.11 | 95 | 1011.8 |
| 20260904154113 | 55 | 123 | 1.0 | 4.0 | 0.00 | 0.44 | 0.11 | 95 | 1011.8 |
| 20260904153613 | 55 | 344 | 1.0 | 4.0 | 0.00 | 0.44 | 0.11 | 95 | 1011.7 |
| 20260904153111 | 55 | 5 | 1.0 | 4.0 | 0.00 | 0.44 | 0.11 | 95 | 1011.7 |
| 20260904152609 | 55 | 22 | 1.0 | 4.0 | 0.00 | 0.45 | 0.11 | 95 | 1011.6 |
| 20260904152110 | 54 | 326 | 1.0 | 4.0 | 0.00 | 0.46 | 0.11 | 95 | 1011.6 |
| 20260904151611 | 54 | 331 | 1.0 | 4.0 | 0.00 | 0.46 | 0.11 | 95 | 1011.5 |
| 20260904151109 | 54 | 22 | 1.0 | 4.0 | 0.00 | 0.46 | 0.11 | 95 | 1011.5 |
| 20260904150608 | 54 | 67 | 0.0 | 3.0 | 0.00 | 0.47 | 0.11 | 95 | 1011.5 |
| 20260904150108 | 54 | 346 | 0.0 | 3.0 | 0.00 | 0.47 | 0.11 | 95 | 1011.4 |
| 20260904145609 | 54 | 333 | 1.0 | 4.0 | 0.00 | 0.48 | 0.11 | 95 | 1011.4 |
| 20260904145107 | 54 | 42 | 1.0 | 4.0 | 0.00 | 0.51 | 0.11 | 95 | 1011.3 |
| 20260904144609 | 54 | 26 | 1.0 | 3.0 | 0.00 | 0.52 | 0.11 | 95 | 1011.3 |
| 20260904144108 | 53 | 172 | 0.0 | 3.0 | 0.00 | 0.54 | 0.11 | 95 | 1011.2 |
| 20260904143609 | 53 | 69 | 0.0 | 3.0 | 0.00 | 0.54 | 0.11 | 95 | 1011.2 |
| 20260904143108 | 53 | 61 | 1.0 | 3.0 | 0.00 | 0.54 | 0.11 | 95 | 1011.2 |
| 20260904142608 | 53 | 16 | 1.0 | 3.0 | 0.00 | 0.54 | 0.11 | 95 | 1011.1 |
| 20260904142109 | 53 | 28 | 0.0 | 3.0 | 0.00 | 0.55 | 0.11 | 95 | 1011.0 |
| 20260904141608 | 53 | 103 | 1.0 | 3.0 | 0.00 | 0.57 | 0.11 | 95 | 1011.0 |
| 20260904141108 | 53 | 350 | 1.0 | 3.0 | 0.00 | 0.58 | 0.11 | 95 | 1010.8 |
| 20260904140607 | 53 | 13 | 0.0 | 3.0 | 0.00 | 0.59 | 0.11 | 95 | 1010.7 |
| 20260904140109 | 53 | 355 | 0.0 | 2.0 | 0.00 | 0.59 | 0.11 | 95 | 1010.7 |
| 20260904135609 | 53 | 13 | 0.0 | 2.0 | 0.00 | 0.59 | 0.11 | 95 | 1010.7 |
| 20260904135108 | 53 | 12 | 0.0 | 3.0 | 0.00 | 0.60 | 0.11 | 95 | 1010.7 |
| 20260904134607 | 53 | 5 | 0.0 | 3.0 | 0.01 | 0.62 | 0.11 | 95 | 1010.7 |
| 20260904134108 | 53 | 5 | 0.0 | 2.0 | 0.01 | 0.62 | 0.11 | 95 | 1010.7 |
| 20260904133608 | 53 | 25 | 1.0 | 3.0 | 0.01 | 0.63 | 0.11 | 95 | 1010.5 |
| 20260904133109 | 53 | 20 | 1.0 | 3.0 | 0.01 | 0.63 | 0.11 | 95 | 1010.4 |
| 20260904132613 | 53 | 26 | 0.0 | 4.0 | 0.01 | 0.63 | 0.11 | 95 | 1010.4 |
| 20260904132609 | 53 | 5 | 1.0 | 3.0 | 0.01 | 0.63 | 0.11 | 95 | 1010.4 |
| 20260904131607 | 53 | 34 | 1.0 | 4.0 | 0.01 | 0.63 | 0.11 | 95 | 1010.3 |
| 20260904131109 | 53 | 0 | 0.0 | 3.0 | 0.01 | 0.63 | 0.11 | 95 | 1010.3 |
| 20260904130607 | 53 | 0 | 1.0 | 4.0 | 0.01 | 0.63 | 0.11 | 95 | 1010.3 |
| 20260904130105 | 53 | 24 | 1.0 | 4.0 | 0.01 | 0.63 | 0.11 | 95 | 1010.3 |
| 20260904125611 | 53 | 173 | 0.0 | 2.0 | 0.01 | 0.63 | 0.10 | 95 | 1010.1 |
| 20260904125605 | 53 | 36 | 1.0 | 4.0 | 0.02 | 0.63 | 0.11 | 95 | 1010.2 |
| 20260904125105 | 53 | 16 | 1.0 | 4.0 | 0.02 | 0.63 | 0.11 | 95 | 1010.2 |
| 20260904124604 | 53 | 178 | 0.0 | 2.0 | 0.01 | 0.63 | 0.10 | 95 | 1010.2 |
| 20260904123603 | 53 | 18 | 0.0 | 2.0 | 0.01 | 0.63 | 0.10 | 95 | 1010.1 |
| 20260904123101 | 53 | 34 | 0.0 | 2.0 | 0.01 | 0.63 | 0.10 | 95 | 1010.1 |
| 20260904122601 | 53 | 28 | 0.0 | 2.0 | 0.01 | 0.63 | 0.10 | 95 | 1010.1 |
| 20260904122103 | 53 | 28 | 0.0 | 2.0 | 0.01 | 0.64 | 0.10 | 95 | 1010.1 |
| 20260904121601 | 53 | 23 | 0.0 | 2.0 | 0.01 | 0.64 | 0.10 | 95 | 1010.1 |
| 20260904121107 | 53 | 22 | 1.0 | 3.0 | 0.01 | 0.65 | 0.10 | 95 | 1010.0 |
| 20260904121101 | 53 | 19 | 0.0 | 3.0 | 0.01 | 0.65 | 0.10 | 95 | 1010.0 |
| 20260904115602 | 53 | 21 | 0.0 | 2.0 | 0.00 | 0.69 | 0.09 | 95 | 1010.0 |
| 20260904115109 | 53 | 13 | 1.0 | 2.0 | 0.00 | 0.75 | 0.09 | 95 | 1009.8 |
| 20260904115101 | 54 | 21 | 0.0 | 2.0 | 0.00 | 0.72 | 0.09 | 95 | 1009.9 |
| 20260904114601 | 53 | 23 | 0.0 | 2.0 | 0.00 | 0.74 | 0.09 | 95 | 1010.0 |
| 20260904114102 | 53 | 17 | 0.0 | 2.0 | 0.00 | 0.74 | 0.09 | 95 | 1009.9 |
| 20260904113101 | 53 | 24 | 0.0 | 2.0 | 0.00 | 0.75 | 0.09 | 95 | 1009.8 |
| 20260904112601 | 53 | 20 | 0.0 | 2.0 | 0.00 | 0.75 | 0.09 | 95 | 1009.7 |
| 20260904112103 | 53 | 349 | 1.0 | 2.0 | 0.00 | 0.75 | 0.09 | 95 | 1009.6 |
| 20260904111603 | 53 | 15 | 0.0 | 3.0 | 0.00 | 0.76 | 0.09 | 95 | 1009.5 |
| 20260904111559 | 53 | 14 | 0.0 | 2.0 | 0.00 | 0.76 | 0.09 | 95 | 1009.6 |
| 20260904111057 | 53 | 17 | 0.0 | 3.0 | 0.00 | 0.76 | 0.09 | 95 | 1009.5 |
| 20260904110059 | 53 | 0 | 0.0 | 2.0 | 0.00 | 0.76 | 0.09 | 95 | 1009.5 |
| 20260904105559 | 54 | 355 | 0.0 | 2.0 | 0.01 | 0.76 | 0.09 | 95 | 1009.5 |
| 20260904105057 | 54 | 99 | 0.0 | 4.0 | 0.01 | 0.76 | 0.09 | 95 | 1009.5 |
| 20260904104600 | 54 | 22 | 0.0 | 4.0 | 0.01 | 0.76 | 0.09 | 95 | 1009.5 |
| 20260904104057 | 54 | 12 | 0.0 | 2.0 | 0.01 | 0.76 | 0.09 | 95 | 1009.5 |
| 20260904103602 | 54 | 106 | 0.0 | 2.0 | 0.01 | 0.76 | 0.09 | 95 | 1009.4 |
| 20260904103557 | 54 | 5 | 0.0 | 2.0 | 0.01 | 0.76 | 0.09 | 95 | 1009.5 |
| 20260904103210 | 54 | 107 | 0.0 | 2.0 | 0.01 | 0.76 | 0.09 | 95 | 1009.4 |
| 20260904102059 | 54 | 109 | 0.0 | 2.0 | 0.01 | 0.76 | 0.09 | 95 | 1009.4 |
| 20260904101603 | 54 | 57 | 0.0 | 2.0 | 0.01 | 0.76 | 0.09 | 95 | 1009.4 |
| 20260904101559 | 54 | 115 | 0.0 | 2.0 | 0.01 | 0.76 | 0.09 | 95 | 1009.4 |
| 20260904100559 | 54 | 43 | 0.0 | 2.0 | 0.02 | 0.76 | 0.09 | 95 | 1009.3 |
| 20260904100555 | 54 | 53 | 0.0 | 2.0 | 0.01 | 0.76 | 0.09 | 95 | 1009.4 |
| 20260904095556 | 54 | 43 | 0.0 | 3.0 | 0.02 | 0.75 | 0.08 | 95 | 1009.3 |
| 20260904095056 | 54 | 44 | 0.0 | 3.0 | 0.02 | 0.75 | 0.08 | 94 | 1009.3 |
| 20260904094555 | 54 | 5 | 0.0 | 2.0 | 0.03 | 0.75 | 0.08 | 94 | 1009.4 |
| 20260904094054 | 54 | 5 | 0.0 | 0.0 | 0.04 | 0.75 | 0.08 | 95 | 1009.4 |
| 20260904093556 | 54 | 5 | 0.0 | 0.0 | 0.05 | 0.75 | 0.08 | 94 | 1009.4 |
| 20260904093054 | 54 | 9 | 0.0 | 0.0 | 0.06 | 0.75 | 0.08 | 94 | 1009.3 |
| 20260904092554 | 54 | 5 | 0.0 | 2.0 | 0.07 | 0.75 | 0.08 | 94 | 1009.3 |
| 20260904092052 | 54 | 5 | 0.0 | 2.0 | 0.08 | 0.75 | 0.08 | 94 | 1009.3 |
| 20260904091553 | 54 | 5 | 0.0 | 2.0 | 0.08 | 0.75 | 0.08 | 94 | 1009.3 |
| 20260904091054 | 54 | 5 | 0.0 | 2.0 | 0.08 | 0.75 | 0.08 | 94 | 1009.3 |
| 20260904090558 | 54 | 5 | 0.0 | 2.0 | 0.07 | 0.74 | 0.07 | 94 | 1009.2 |
| 20260904090553 | 54 | 0 | 0.0 | 2.0 | 0.08 | 0.75 | 0.08 | 95 | 1009.2 |
| 20260904085559 | 54 | 9 | 0.0 | 2.0 | 0.05 | 0.72 | 0.05 | 94 | 1009.2 |
| 20260904085554 | 54 | 9 | 0.0 | 2.0 | 0.06 | 0.73 | 0.06 | 94 | 1009.2 |
| 20260904085055 | 54 | 5 | 0.0 | 2.0 | 0.06 | 0.73 | 0.06 | 94 | 1009.2 |
| 20260904084707 | 54 | 5 | 0.0 | 2.0 | 0.03 | 0.70 | 0.03 | 94 | 1009.3 |
| 20260904084054 | 54 | 5 | 0.0 | 2.0 | 0.04 | 0.71 | 0.04 | 94 | 1009.3 |
| 20260904083053 | 54 | 5 | 0.0 | 2.0 | 0.02 | 0.70 | 0.02 | 94 | 1009.4 |
| 20260904082553 | 54 | 5 | 0.0 | 2.0 | 0.01 | 0.69 | 0.01 | 94 | 1009.3 |
| 20260904082051 | 54 | 355 | 0.0 | 2.0 | 0.00 | 0.68 | 0.01 | 94 | 1009.4 |
| 20260904081556 | 53 | 32 | 0.0 | 3.0 | 0.00 | 0.68 | 0.00 | 94 | 1009.3 |
| 20260904081551 | 53 | 347 | 0.0 | 3.0 | 0.00 | 0.68 | 0.00 | 94 | 1009.3 |
| 20260904080552 | 53 | 180 | 0.0 | 2.0 | 0.00 | 0.68 | 0.00 | 94 | 1009.4 |
| 20260904080050 | 53 | 180 | 0.0 | 2.0 | 0.00 | 0.68 | 0.00 | 94 | 1009.4 |
| 20260904075555 | 54 | 180 | 0.0 | 2.0 | 0.00 | 0.68 | 0.00 | 94 | 1009.4 |
| 20260904075551 | 54 | 180 | 0.0 | 2.0 | 0.00 | 0.68 | 0.00 | 94 | 1009.4 |
| 20260904074549 | 54 | 180 | 0.0 | 2.0 | 0.00 | 0.68 | 0.00 | 94 | 1009.3 |
| 20260904074048 | 54 | 180 | 0.0 | 2.0 | 0.00 | 0.68 | 0.00 | 94 | 1009.3 |
| 20260904073549 | 54 | 180 | 0.0 | 2.0 | 0.00 | 0.68 | 0.00 | 94 | 1009.3 |
| 20260904073049 | 54 | 60 | 0.0 | 2.0 | 0.00 | 0.68 | 0.00 | 94 | 1009.2 |
| 20260904072549 | 54 | 60 | 0.0 | 2.0 | 0.00 | 0.68 | 0.00 | 94 | 1009.2 |
| 20260904072050 | 54 | 60 | 0.0 | 2.0 | 0.00 | 0.68 | 0.00 | 94 | 1009.2 |
| 20260904071549 | 54 | 60 | 0.0 | 2.0 | 0.00 | 0.68 | 0.00 | 94 | 1009.3 |
| 20260904071048 | 54 | 9 | 0.0 | 2.0 | 0.00 | 0.68 | 0.00 | 94 | 1009.2 |
| 20260904070552 | 54 | 5 | 0.0 | 2.0 | 0.00 | 0.68 | 0.00 | 94 | 1009.1 |
| 20260904070548 | 54 | 41 | 0.0 | 2.0 | 0.00 | 0.68 | 0.00 | 94 | 1009.1 |
| 20260904065547 | 54 | 41 | 0.0 | 3.0 | 0.00 | 0.68 | 0.68 | 94 | 1009.2 |
| 20260904065048 | 54 | 37 | 0.0 | 3.0 | 0.00 | 0.68 | 0.68 | 94 | 1009.1 |
| 20260904064547 | 54 | 37 | 0.0 | 3.0 | 0.00 | 0.68 | 0.68 | 94 | 1009.1 |
| 20260904064047 | 54 | 37 | 0.0 | 3.0 | 0.00 | 0.68 | 0.68 | 94 | 1009.1 |
| 20260904063548 | 54 | 136 | 0.0 | 2.0 | 0.00 | 0.68 | 0.68 | 94 | 1009.2 |
| 20260904063047 | 54 | 136 | 0.0 | 2.0 | 0.00 | 0.68 | 0.68 | 94 | 1009.2 |
| 20260904062547 | 54 | 136 | 0.0 | 2.0 | 0.00 | 0.68 | 0.68 | 94 | 1009.2 |
| 20260904062051 | 54 | 136 | 0.0 | 2.0 | 0.00 | 0.68 | 0.68 | 94 | 1009.2 |
| 20260904062045 | 54 | 136 | 0.0 | 2.0 | 0.00 | 0.68 | 0.68 | 94 | 1009.2 |
| 20260904061045 | 54 | 136 | 0.0 | 2.0 | 0.00 | 0.68 | 0.68 | 94 | 1009.2 |
| 20260904060545 | 54 | 137 | 0.0 | 2.0 | 0.00 | 0.68 | 0.68 | 94 | 1009.2 |
| 20260904060045 | 54 | 137 | 0.0 | 2.0 | 0.00 | 0.68 | 0.68 | 94 | 1009.3 |
| 20260904055545 | 54 | 138 | 0.0 | 0.0 | 0.00 | 0.68 | 0.68 | 94 | 1009.3 |
| 20260904055045 | 54 | 138 | 0.0 | 0.0 | 0.00 | 0.68 | 0.68 | 94 | 1009.3 |
| 20260904054544 | 54 | 138 | 0.0 | 0.0 | 0.00 | 0.68 | 0.68 | 94 | 1009.3 |
| 20260904054044 | 54 | 138 | 0.0 | 0.0 | 0.01 | 0.68 | 0.68 | 93 | 1009.3 |
| 20260904053549 | 54 | 138 | 0.0 | 2.0 | 0.02 | 0.68 | 0.68 | 93 | 1009.3 |
| 20260904053543 | 54 | 138 | 0.0 | 2.0 | 0.01 | 0.68 | 0.68 | 93 | 1009.3 |
| 20260904052543 | 54 | 138 | 0.0 | 2.0 | 0.02 | 0.68 | 0.68 | 94 | 1009.3 |
| 20260904052043 | 54 | 138 | 0.0 | 2.0 | 0.03 | 0.68 | 0.68 | 94 | 1009.3 |
| 20260904051543 | 54 | 91 | 0.0 | 2.0 | 0.03 | 0.68 | 0.68 | 94 | 1009.3 |